Weather History for SBCO - May, 2013

Change the Weather History Date:

Tuesday, May 28, 2013

  Actual Average Record
Temperature  
Mean Temperature 62 °F -  
Max Temperature 77 °F 67 °F - ()
Min Temperature 48 °F 51 °F - ()
Degree Days  
Heating Degree Days 2    
Growing Degree Days 12 (Base 50)    
Moisture  
Dew Point 60 °F    
Average Humidity 88    
Maximum Humidity 100    
Minimum Humidity 61    
Precipitation  
Precipitation 0.00 in 0.17 in - ()
Sea Level Pressure  
Sea Level Pressure 29.70 in    
Wind  
Wind Speed 3 mph ()    
Max Wind Speed 12 mph    
Max Gust Speed -    
Visibility 4.3 miles    
Events Fog , Rain , Thunderstorm    
T = Trace of Precipitation, MM = Missing Value Source: Averaged Metar Reports

Daily Weather History Graph

Daily Weather History Graph

Search for Another Location

Airport or City:

Trip Planner

Search our weather history database for the weather conditions in past years. The results will help you decide how hot, cold, wet, or windy it might be!

Date:

Astronomy

May. 28, 2013 Rise Set
Actual Time 7:10 AM BRT 5:33 PM BRT
Civil Twilight 6:44 AM BRT 5:59 PM BRT
Nautical Twilight 6:14 AM BRT 6:28 PM BRT
Astronomical Twilight 5:45 AM BRT 6:57 PM BRT
Moon 9:34 PM BRT (5/28) 10:21 AM BRT (5/28)
Length of Visible Light 11h 15m
Length of Day
10h 23m
Waning Gibbous, 83% of the Moon is Illuminated
May 28
Waning Gibbous
May 31
Last Quarter
Jun 8
New
Jun 16
First Quarter
Jun 23
Full

Hourly Weather History & Observations

Time (BRT) Temp. Dew Point Humidity Pressure Visibility Wind Dir Wind Speed Gust Speed Precip Events Conditions
12:00 AM 53.6 °F 53.6 °F 100% 29.83 in 3.1 mi SE 2.3 mph - N/A Fog Patches of Fog
6:00 AM 50.0 °F 50.0 °F 100% 29.77 in 0.2 mi Calm Calm - N/A Fog Fog
7:00 AM 48.2 °F 48.2 °F 100% 29.77 in 0.1 mi SE 1.2 mph - N/A Fog Fog
7:35 AM 50.0 °F 50.0 °F 100% 2.95 in 0.5 mi SE 2.3 mph - N/A Fog Fog
8:00 AM 51.8 °F 51.8 °F 100% 29.80 in 1.2 mi East 2.3 mph - N/A   Mist
9:00 AM 57.2 °F 57.2 °F 100% 29.80 in 1.9 mi SE 3.5 mph - N/A   Mist
9:12 AM 60.8 °F 60.8 °F 100% 29.80 in 3.1 mi SE 2.3 mph - N/A   Mist
10:00 AM 62.6 °F 60.8 °F 94% 29.80 in - South 3.5 mph - N/A   Clear
11:00 AM 71.6 °F 62.6 °F 73% 29.77 in - North 3.5 mph - N/A   Clear
12:00 PM 75.2 °F 64.4 °F 69% 29.74 in - ESE 4.6 mph - N/A   Clear
1:00 PM 77.0 °F 64.4 °F 65% 29.68 in - ESE 9.2 mph - N/A   Clear
2:00 PM 77.0 °F 62.6 °F 61% 29.65 in - East 4.6 mph - N/A   Clear
3:00 PM 75.2 °F 64.4 °F 69% 29.65 in 6.2 mi East 3.5 mph - N/A   Scattered Clouds
4:00 PM 73.4 °F 64.4 °F 73% 29.59 in 6.2 mi SSE 8.1 mph - N/A   Mostly Cloudy
4:20 PM 71.6 °F 64.4 °F 78% 29.62 in 6.2 mi SE 5.8 mph - N/A Thunderstorm Thunderstorm
5:00 PM 69.8 °F 64.4 °F 83% 29.56 in 6.2 mi SE 10.4 mph - N/A Thunderstorm Thunderstorm
6:00 PM 68.0 °F 64.4 °F 88% 29.62 in 6.2 mi South 5.8 mph - N/A Thunderstorm Thunderstorm
7:00 PM 68.0 °F 64.4 °F 88% 29.68 in 6.2 mi WNW 11.5 mph - N/A   Mostly Cloudy
7:45 PM 66.2 °F 62.6 °F 88% 29.65 in 6.2 mi NE 3.5 mph - N/A Thunderstorm Thunderstorm
8:00 PM 66.2 °F 62.6 °F 88% 29.65 in 6.2 mi ESE 4.6 mph - N/A Thunderstorm Thunderstorm
9:00 PM 66.2 °F 64.4 °F 94% - 6.2 mi ENE 5.8 mph - N/A Rain , Thunderstorm Light Thunderstorms and Rain
9:40 PM 64.4 °F 62.6 °F 94% 29.62 in 6.2 mi NNE 2.3 mph - N/A   Partly Cloudy
10:00 PM 62.6 °F 62.6 °F 100% 29.62 in - Calm Calm - N/A   Clear
11:00 PM 60.8 °F 60.8 °F 100% 29.62 in 6.2 mi Calm Calm - N/A   Partly Cloudy